星链-32416 (STARLINK-32416)

导读

STARLINK-32416是美国SpaceX公司星链互联网星座项目中的一颗低轨通信卫星,于2024年10月18日发射入轨。作为星链大规模组网计划的组成部分,它运行在近地轨道,旨在为全球尤其是地面基础设施覆盖盲区提供高速低延迟宽带互联网服务,助力弥合数字鸿沟,同时也服务于商业、应急通信等多元应用场景,是星链全球星座扩展的重要一环。

Basic Information
目录编号:
61589
目录名称:
STARLINK-32416
国际标识:
2024-187R
轨道中心:
EARTH
卫星名称:
星链-32416
卫星全名:
星链-32416 (STARLINK-32416)
卫星状态:
在轨 (已飞行687 天)
发射日期:
2024-10-18 UTC
国别 :
美国 (US)
星等 :
--
Orbit Information
数据来源 国际轨道数据
星历时间: 2026-09-05T14:04:00+0800
6小时前
查看轨道信息
半长轴: 6840.887km
偏心率: 0.0001246
轨道倾角: 53.159°
近地点辐角 81.589°
升交点赤经 292.652°
平近点角 278.525°
近地点: 461.897km
远地点: 463.603km
周期: 93.849分钟
每日圈数: 15.343844
Detailed Information
固有亮度:
5
最大亮度:
2.5
卫星平台:
Starlink V1.0
覆盖范围:
全球
运营商:
太空探索技术公司
运营商所在国:
美国
制造商(研发单位):
太空探索技术公司
制造商所在国:
美国
使用方式:
暂无
Satellite Introduction
Starlink 计划是 SpaceX 推出的全球卫星互联网项目,通过发射低轨道卫星,为全球尤其是偏远地区提供高速、低延迟的互联网服务。自 2019 年起,Starlink 已部署数千颗卫星,旨在缩小全球数字鸿沟,推动互联网普及。该项目还为军事、航空等行业提供通信支持,带来广泛经济效益。
2D Orbit Map
3D Orbit Map
Orbit Altitude Analysis Chart
Orbit Inclination Analysis Chart
Orbit Comprehensive Analysis Chart
View Comprehensive Chart
Conjunction Data List
Event ID Objects TCA Miss Dist (km) Collision Risk Probability Collision Risk Index (CRI) Action
CDM_260907-065604-738806-158921
2026-09-07T
06:56:28+0000
1.042 km
极远距离
5.895086E-6 低风险 0.5
CDM_260907-031705-083406-158921
2026-09-07T
03:17:30+0000
2.786 km
极远距离
1.291651E-6 低风险 0.37
CDM_260907-060904-738806-158921
2026-09-07T
06:09:35+0000
1.758 km
极远距离
1.168177E-6 低风险 0.36
CDM_260906-213302-389306-158922
USA 119 (23893)
2026-09-06T
21:33:06+0000
2.544 km
极远距离
1.014902E-6 低风险 0.35